Vorticity
12 8 6 5 5 8 8 21 38 8 10 12 21 -1 -11 28 15 12 2 -1 19 4 10 5 6 4 3 0 1 4 4 5
7 7 8 5 5 7 9 23 20 25 -1 42 -1 13 0 13 19 2 19 -6 33 4 6 3 5 3 4 3 5 -1 4 6
7 7 8 6 4 7 10 14 35 -3 -11 5 18 -6 24 -12 24 9 12 28 1 4 4 4 3 5 -6 -2 4 1 1 3
12 6 9 8 6 6 8 11 22 27 8 15 6 15 -1 -8 35 1 20 6 0 4 3 7 4 4 2 -0 3 -13 -5 4
14 9 11 6 7 6 6 8 11 17 29 9 15 17 24 4 20 12 12 8 6 -3 2 9 -1 -4 1 -3 8 18 -1 5
17 9 10 5 7 6 6 5 6 11 15 17 40 13 8 11 6 -8 12 13 12 -10 5 4 -1 12 -2 -8 11 15 -0 0
4 9 4 7 7 8 6 6 5 5 8 14 17 20 28 28 11 16 4 16 6 -6 11 1 3 3 12 -2 42 -4 1 -1
5 14 5 11 11 10 7 5 5 5 4 6 7 11 15 25 31 25 8 4 33 30 -12 22 -21 40 0 16 -0 4 -3 -2
15 12 5 7 8 9 8 6 5 4 4 4 5 5 9 13 14 29 28 5 13 -2 24 13 11 15 20 4 10 -2 -3 3
18 1 7 4 9 9 9 6 5 3 3 3 4 6 4 5 11 13 17 15 19 18 23 29 4 1 12 14 6 4 0 2
18 3 11 6 8 7 6 5 6 7 5 2 1 3 4 6 4 5 4 9 11 9 9 14 18 13 12 10 4 5 1 2
15 17 33 11 6 11 6 3 5 5 8 7 10 8 5 2 2 5 8 5 4 8 10 8 9 9 6 4 2 5 5 0
30 12 18 15 10 4 7 8 6 1 -1 -0 -4 -0 10 6 7 4 9 6 9 9 4 7 6 7 9 7 8 8 8 6
12 21 10 18 20 8 4 3 7 4 2 3 5 7 8 4 1 -1 6 9 4 7 5 2 7 5 5 2 0 5 7 3
6 16 18 13 8 9 17 8 10 9 8 9 10 10 12 17 9 1 5 7 8 3 5 8 16 14 9 11 13 10 8 3
24 5 7 10 6 11 15 17 1 8 16 13 25 18 19 19 19 20 11 9 12 4 5 -2 2 4 11 17 29 4 -5 7
-3 15 10 -4 2 7 21 12 6 8 5 1 16 12 18 18 15 16 18 12 7 8 13 -2 -4 3 28 49 34 0 2 -5
3 2 16 14 2 2 16 0 3 4 11 3 6 7 1 -4 0 16 22 17 19 16 20 24 11 1 8 10 4 -0 1 2
14 -0 -1 3 15 10 13 8 3 9 3 12 3 3 2 1 0 0 3 14 20 14 15 19 5 9 5 4 -2 -4 3 12
Height
3087 3085 3085 3084 3082 3080 3078 3075 3074 3079 3084 3087 3090 3093 3096 3099 3103 3107 3112 3119 3126 3133 3138 3142 3146 3149 3152 3154 3157 3159 3162 3164
3085 3084 3084 3083 3081 3079 3076 3073 3072 3076 3080 3084 3089 3091 3094 3098 3101 3104 3108 3113 3121 3128 3133 3139 3143 3146 3149 3153 3154 3156 3160 3162
3081 3081 3081 3081 3080 3079 3077 3074 3072 3076 3079 3084 3087 3089 3092 3096 3098 3102 3107 3112 3119 3125 3129 3134 3138 3140 3144 3148 3150 3153 3156 3159
3078 3078 3079 3079 3079 3079 3078 3075 3072 3073 3077 3080 3083 3086 3089 3093 3095 3099 3103 3108 3113 3120 3124 3129 3134 3136 3140 3143 3145 3148 3152 3155
3074 3075 3075 3076 3077 3077 3077 3076 3074 3074 3075 3078 3081 3084 3086 3090 3093 3096 3099 3103 3107 3113 3118 3123 3128 3130 3134 3138 3141 3143 3145 3148
3071 3072 3072 3073 3074 3076 3076 3076 3076 3075 3076 3077 3078 3080 3083 3086 3089 3091 3094 3098 3101 3105 3110 3116 3121 3125 3129 3131 3134 3139 3141 3143
3068 3069 3068 3069 3071 3073 3075 3076 3076 3077 3076 3076 3076 3078 3079 3081 3083 3087 3092 3094 3098 3101 3105 3111 3116 3120 3123 3126 3129 3133 3136 3137
3063 3065 3065 3066 3068 3070 3071 3073 3073 3074 3075 3076 3076 3075 3076 3077 3079 3084 3087 3092 3094 3097 3102 3106 3110 3113 3117 3122 3124 3126 3129 3130
3058 3060 3061 3063 3064 3066 3068 3070 3070 3071 3072 3072 3073 3074 3075 3075 3077 3079 3083 3086 3088 3093 3096 3100 3105 3106 3110 3115 3116 3119 3121 3122
3053 3055 3057 3059 3060 3062 3064 3066 3068 3069 3069 3070 3071 3073 3074 3075 3077 3078 3080 3082 3084 3088 3090 3092 3096 3099 3103 3106 3109 3112 3114 3116
3048 3049 3051 3054 3056 3058 3060 3062 3064 3066 3067 3068 3069 3071 3072 3073 3075 3076 3078 3079 3082 3084 3085 3087 3089 3092 3095 3098 3101 3104 3106 3108
3044 3044 3044 3048 3051 3053 3055 3057 3059 3061 3063 3065 3067 3068 3069 3070 3071 3073 3075 3077 3079 3080 3081 3082 3085 3087 3090 3091 3094 3096 3097 3100
3041 3041 3041 3043 3045 3048 3050 3052 3054 3057 3059 3060 3062 3063 3064 3065 3066 3068 3070 3072 3073 3075 3076 3077 3080 3082 3084 3084 3086 3089 3090 3090
3038 3037 3038 3039 3041 3043 3045 3047 3050 3051 3052 3054 3055 3056 3057 3059 3061 3062 3062 3064 3065 3067 3068 3070 3072 3073 3075 3075 3077 3080 3080 3080
3035 3034 3034 3036 3037 3038 3040 3041 3043 3045 3046 3046 3047 3048 3050 3051 3053 3054 3055 3057 3057 3058 3060 3062 3063 3064 3064 3065 3066 3068 3069 3067
3029 3030 3030 3031 3032 3033 3034 3035 3037 3038 3039 3040 3040 3041 3042 3042 3043 3045 3046 3047 3048 3050 3051 3052 3054 3054 3053 3052 3054 3058 3059 3058
3023 3024 3025 3025 3026 3027 3028 3029 3031 3031 3032 3034 3034 3035 3036 3036 3037 3038 3038 3038 3039 3040 3040 3043 3044 3045 3044 3042 3046 3048 3050 3050
3014 3015 3015 3018 3020 3021 3021 3023 3023 3024 3025 3026 3028 3029 3030 3031 3031 3031 3032 3032 3032 3032 3032 3032 3034 3037 3038 3037 3038 3038 3039 3040
3006 3007 3007 3009 3009 3011 3013 3014 3015 3016 3018 3019 3020 3021 3023 3023 3024 3024 3025 3025 3024 3025 3025 3026 3027 3029 3030 3030 3030 3028 3029 3029